TimeEST,TemperatureF,Dew PointF,Humidity,Sea Level PressureIn,VisibilityMPH,Wind Direction,Wind SpeedMPH,Gust SpeedMPH,PrecipitationIn,Events,Conditions,WindDirDegrees,DateUTC
12:19 AM,32.0,14.0,48,29.93,10.0,WNW,4.6,-,N/A,,Clear,290,2013-03-04 05:19:00
12:39 AM,32.0,14.0,48,29.93,10.0,WNW,8.1,-,N/A,,Clear,300,2013-03-04 05:39:00
12:59 AM,32.0,14.0,48,29.93,10.0,WNW,6.9,-,N/A,,Clear,290,2013-03-04 05:59:00
1:19 AM,32.0,15.8,51,29.93,10.0,WNW,10.4,-,N/A,,Clear,290,2013-03-04 06:19:00
1:39 AM,30.2,15.8,55,29.93,10.0,WNW,6.9,16.1,N/A,,Clear,300,2013-03-04 06:39:00
1:59 AM,30.2,15.8,55,29.93,10.0,WNW,6.9,-,N/A,,Clear,290,2013-03-04 06:59:00
2:19 AM,30.2,15.8,55,29.93,10.0,WNW,4.6,-,N/A,,Clear,290,2013-03-04 07:19:00
2:39 AM,30.2,15.8,55,29.93,10.0,WNW,9.2,-,N/A,,Clear,290,2013-03-04 07:39:00
2:59 AM,30.2,15.8,55,29.93,10.0,WNW,6.9,-,N/A,,Clear,300,2013-03-04 07:59:00
3:19 AM,30.2,15.8,55,29.93,10.0,West,6.9,-,N/A,,Clear,280,2013-03-04 08:19:00
3:39 AM,30.2,15.8,55,29.94,10.0,West,6.9,-,N/A,,Clear,280,2013-03-04 08:39:00
3:59 AM,30.2,15.8,55,29.94,10.0,WNW,6.9,-,N/A,,Clear,290,2013-03-04 08:59:00
4:19 AM,30.2,15.8,55,29.94,10.0,WNW,5.8,-,N/A,,Clear,300,2013-03-04 09:19:00
4:39 AM,30.2,15.8,55,29.94,10.0,WNW,6.9,-,N/A,,Clear,290,2013-03-04 09:39:00
4:59 AM,30.2,15.8,55,29.95,10.0,WNW,6.9,-,N/A,,Clear,290,2013-03-04 09:59:00
5:19 AM,30.2,15.8,55,29.95,10.0,WNW,6.9,-,N/A,,Clear,290,2013-03-04 10:19:00
5:59 AM,30.2,15.8,55,29.96,10.0,WNW,8.1,-,N/A,,Clear,290,2013-03-04 10:59:00
6:19 AM,30.2,15.8,55,29.97,10.0,WNW,5.8,-,N/A,,Clear,290,2013-03-04 11:19:00
6:40 AM,30.2,15.8,55,29.98,10.0,West,5.8,-,N/A,,Clear,280,2013-03-04 11:40:00
7:00 AM,30.2,17.6,60,29.99,10.0,West,5.8,-,N/A,,Clear,270,2013-03-04 12:00:00
7:20 AM,30.2,15.8,55,29.99,10.0,WNW,8.1,-,N/A,,Clear,290,2013-03-04 12:20:00
7:40 AM,30.2,15.8,55,30.00,10.0,WNW,6.9,-,N/A,,Clear,300,2013-03-04 12:40:00
8:00 AM,32.0,14.0,48,30.00,10.0,WNW,9.2,19.6,N/A,,Clear,300,2013-03-04 13:00:00
8:20 AM,32.0,14.0,48,30.00,10.0,West,9.2,17.3,N/A,,Clear,280,2013-03-04 13:20:00
8:40 AM,32.0,14.0,48,30.01,10.0,West,13.8,-,N/A,,Clear,280,2013-03-04 13:40:00
9:00 AM,32.0,14.0,48,30.01,10.0,WNW,15.0,23.0,N/A,,Clear,300,2013-03-04 14:00:00
9:20 AM,32.0,14.0,48,30.01,10.0,WNW,10.4,19.6,N/A,,Clear,290,2013-03-04 14:20:00
9:40 AM,33.8,14.0,44,30.01,10.0,WNW,11.5,17.3,N/A,,Clear,290,2013-03-04 14:40:00
10:00 AM,33.8,14.0,44,30.01,10.0,West,18.4,21.9,N/A,,Clear,280,2013-03-04 15:00:00
10:20 AM,33.8,12.2,41,30.01,10.0,West,9.2,24.2,N/A,,Clear,280,2013-03-04 15:20:00
11:00 AM,35.6,14.0,41,30.00,10.0,West,13.8,23.0,N/A,,Clear,280,2013-03-04 16:00:00
11:20 AM,35.6,14.0,41,30.00,10.0,West,16.1,24.2,N/A,,Clear,280,2013-03-04 16:20:00
11:40 AM,37.4,14.0,38,29.99,10.0,WNW,11.5,20.7,N/A,,Clear,290,2013-03-04 16:40:00
12:00 PM,37.4,14.0,38,29.99,10.0,WNW,13.8,25.3,N/A,,Clear,290,2013-03-04 17:00:00
12:20 PM,37.4,14.0,38,29.99,10.0,WNW,12.7,23.0,N/A,,Clear,290,2013-03-04 17:20:00
1:00 PM,39.2,14.0,36,29.97,10.0,West,15.0,26.5,N/A,,Clear,280,2013-03-04 18:00:00
1:20 PM,41.0,14.0,33,29.96,10.0,WNW,10.4,25.3,N/A,,Clear,290,2013-03-04 18:20:00
1:40 PM,41.0,15.8,36,29.95,10.0,West,18.4,25.3,N/A,,Clear,270,2013-03-04 18:40:00
2:00 PM,41.0,15.8,36,29.95,10.0,West,13.8,18.4,N/A,,Clear,280,2013-03-04 19:00:00
2:20 PM,41.0,15.8,36,29.95,10.0,West,21.9,27.6,N/A,,Clear,270,2013-03-04 19:20:00
2:40 PM,42.8,15.8,34,29.95,10.0,WNW,11.5,18.4,N/A,,Clear,300,2013-03-04 19:40:00
3:01 PM,42.8,15.8,34,29.95,10.0,West,6.9,20.7,N/A,,Clear,280,2013-03-04 20:01:00
3:21 PM,42.8,15.8,34,29.94,10.0,NW,10.4,19.6,N/A,,Clear,310,2013-03-04 20:21:00
3:41 PM,44.6,17.6,34,29.94,10.0,WNW,13.8,21.9,N/A,,Clear,300,2013-03-04 20:41:00
4:01 PM,42.8,14.0,31,29.94,10.0,WNW,11.5,23.0,N/A,,Clear,290,2013-03-04 21:01:00
4:21 PM,42.8,15.8,34,29.95,10.0,WNW,13.8,18.4,N/A,,Clear,290,2013-03-04 21:21:00
4:41 PM,42.8,14.0,31,29.95,10.0,WNW,9.2,-,N/A,,Clear,290,2013-03-04 21:41:00
5:01 PM,42.8,14.0,31,29.95,10.0,NW,8.1,-,N/A,,Clear,310,2013-03-04 22:01:00
5:21 PM,42.8,14.0,31,29.96,10.0,WNW,11.5,17.3,N/A,,Clear,290,2013-03-04 22:21:00
5:41 PM,42.8,14.0,31,29.97,10.0,WNW,6.9,17.3,N/A,,Clear,290,2013-03-04 22:41:00
6:01 PM,41.0,14.0,33,29.97,10.0,WNW,6.9,-,N/A,,Clear,290,2013-03-04 23:01:00
6:21 PM,41.0,14.0,33,29.98,10.0,WNW,6.9,-,N/A,,Clear,290,2013-03-04 23:21:00
6:41 PM,39.2,14.0,36,29.99,10.0,WNW,5.8,-,N/A,,Clear,300,2013-03-04 23:41:00
7:01 PM,39.2,12.2,33,30.00,10.0,WNW,4.6,-,N/A,,Clear,290,2013-03-05 00:01:00
7:21 PM,37.4,12.2,36,30.01,10.0,WNW,5.8,-,N/A,,Clear,300,2013-03-05 00:21:00
8:01 PM,37.4,12.2,36,30.02,10.0,WNW,6.9,-,N/A,,Clear,300,2013-03-05 01:01:00
8:21 PM,37.4,12.2,36,30.02,10.0,NW,4.6,-,N/A,,Clear,310,2013-03-05 01:21:00
8:41 PM,37.4,12.2,36,30.03,10.0,WNW,5.8,-,N/A,,Clear,300,2013-03-05 01:41:00
9:01 PM,37.4,12.2,36,30.04,10.0,NW,4.6,-,N/A,,Clear,310,2013-03-05 02:01:00
9:21 PM,37.4,12.2,36,30.04,10.0,WNW,5.8,-,N/A,,Clear,290,2013-03-05 02:21:00
9:41 PM,35.6,12.2,38,30.04,10.0,WNW,5.8,-,N/A,,Clear,290,2013-03-05 02:41:00
10:01 PM,35.6,12.2,38,30.05,10.0,WNW,3.5,-,N/A,,Clear,290,2013-03-05 03:01:00
10:21 PM,35.6,12.2,38,30.04,10.0,WNW,3.5,-,N/A,,Clear,290,2013-03-05 03:21:00
10:41 PM,35.6,14.0,41,30.04,10.0,Calm,Calm,-,N/A,,Clear,0,2013-03-05 03:41:00
11:01 PM,33.8,14.0,44,30.04,10.0,Calm,Calm,-,N/A,,Clear,0,2013-03-05 04:01:00
11:21 PM,32.0,14.0,48,30.04,10.0,Calm,Calm,-,N/A,,Clear,0,2013-03-05 04:21:00
11:41 PM,32.0,15.8,51,30.05,10.0,Calm,Calm,-,N/A,,Clear,0,2013-03-05 04:41:00